Temperature
16 16 17 17 17 17 18 21 23 25 26 27 27 27 26 26 25 22 20 19 20 20 19 18 17 16 16 15 15 15 15 14 14 14 14 14 13 13 13 13 13 13 13 13 13 13 13 13 14
16 16 17 18 17 17 19 21 23 25 26 26 25 25 25 25 23 21 20 19 19 19 19 17 17 16 16 15 15 15 14 14 14 14 13 13 13 13 13 13 13 12 12 12 12 12 13 13 14
16 16 17 17 17 18 20 23 24 25 25 25 25 25 25 24 22 21 20 19 18 18 18 17 16 16 15 15 15 14 14 14 14 13 13 13 13 12 12 12 12 12 12 12 12 12 12 13 14
15 16 17 17 18 20 22 23 24 25 25 24 24 24 24 23 22 21 20 19 18 17 17 16 16 15 15 15 14 14 14 14 13 13 13 12 12 12 12 12 12 12 12 12 12 12 12 13 13
15 16 16 17 18 20 22 24 25 24 24 24 24 23 23 22 22 21 20 19 18 16 16 16 15 15 15 14 14 14 14 13 13 13 12 12 12 12 12 12 12 12 12 11 11 12 12 12 13
15 17 16 16 18 21 22 24 24 24 24 24 24 23 22 21 21 21 19 18 17 16 16 15 15 14 14 14 14 14 13 13 13 12 12 12 12 12 12 12 12 11 11 11 11 11 12 12 12
15 16 16 17 19 20 23 24 24 23 23 24 24 23 22 20 20 20 19 17 16 15 15 15 14 14 14 14 14 13 13 13 12 12 12 12 12 12 12 12 11 11 11 11 11 11 11 12 12
15 16 16 17 18 19 22 24 24 24 23 24 24 23 22 20 20 19 18 17 16 15 15 15 14 14 14 13 13 13 13 12 12 12 12 12 12 11 12 12 11 11 11 11 11 11 11 11 11
15 14 15 16 18 20 22 23 23 23 23 23 23 23 22 21 19 18 17 16 16 15 14 14 14 14 14 13 13 13 13 12 12 12 12 12 11 11 11 11 11 11 11 11 11 11 11 11 11
14 13 15 17 19 20 21 22 23 23 22 22 22 21 21 20 18 18 17 16 16 15 14 14 14 14 13 13 13 13 12 12 12 12 12 11 11 11 11 11 11 11 11 11 11 11 10 10 10
14 14 16 17 19 20 20 21 22 21 21 22 22 20 19 19 18 18 17 17 16 15 14 14 14 14 13 13 13 13 12 12 12 12 12 11 11 10 11 11 11 11 11 11 10 10 10 10 10
14 15 16 17 18 19 19 20 20 21 21 22 22 21 20 18 18 18 17 17 16 15 15 14 14 14 13 13 13 13 12 12 12 12 11 11 11 11 11 11 11 11 10 10 10 10 9 9 10
13 14 16 17 17 18 19 19 19 20 21 21 21 21 20 19 18 18 18 17 16 15 15 14 14 14 13 13 13 13 12 12 12 11 11 11 11 11 11 11 11 10 10 10 10 10 9 9 9
13 14 15 16 17 17 18 18 18 19 20 20 20 20 20 19 19 18 18 17 17 16 15 15 14 14 14 13 13 13 12 12 12 12 11 11 11 11 11 11 10 10 10 10 10 9 9 9 9
12 13 14 15 16 16 17 16 17 19 19 20 20 20 20 19 19 19 19 18 17 16 16 15 14 14 14 14 13 13 12 12 12 12 11 11 11 11 11 11 10 10 10 10 10 9 9 9 9
11 11 11 14 15 16 15 14 17 18 19 19 20 20 20 20 19 19 19 19 18 17 16 15 15 14 14 14 13 13 12 12 12 12 11 11 11 11 11 11 10 10 10 10 10 10 9 9 9
10 10 11 13 15 16 15 15 17 18 19 19 19 20 20 20 20 20 19 19 18 17 16 15 15 15 14 14 13 13 12 12 12 12 12 11 11 11 11 11 10 10 10 10 10 10 9 9 9
9 10 11 12 15 15 15 15 16 18 19 19 19 20 20 20 20 20 20 19 19 18 17 16 15 15 14 14 13 13 12 12 12 12 12 12 12 11 11 11 11 10 10 10 10 10 9 9 9
10 11 11 13 15 15 14 15 16 17 18 18 19 20 20 20 20 20 20 19 19 18 17 16 15 15 14 14 13 13 13 13 12 12 12 12 12 11 11 11 11 10 10 10 10 10 10 9 9
10 10 10 12 14 14 14 14 16 17 17 18 19 20 20 20 20 20 20 20 19 18 17 16 16 15 15 15 15 14 14 13 13 12 12 12 12 11 11 11 11 11 11 10 10 10 10 9 9
9 9 10 11 12 13 13 13 14 16 17 18 19 19 20 20 21 21 20 20 19 18 18 17 16 16 15 15 14 13 12 12 12 12 12 12 12 12 11 11 11 11 11 11 10 10 10 10 9
8 10 10 11 10 10 11 11 13 15 16 17 18 19 19 20 21 21 20 20 19 19 18 17 16 16 15 15 14 13 13 13 14 14 13 13 12 12 11 11 11 11 11 10 10 10 10 10 10
9 11 10 10 9 9 10 10 12 15 15 17 17 18 19 20 20 20 20 20 19 19 18 18 17 16 15 15 14 14 14 15 14 14 13 13 12 12 11 11 11 11 11 10 10 10 10 10 10
10 10 10 9 8 8 9 10 11 14 16 17 18 18 19 19 20 20 20 20 20 19 18 18 17 16 15 14 14 14 15 14 14 13 13 13 12 12 11 11 11 11 10 10 10 10 10 10 10
9 7 7 7 7 8 10 11 11 15 17 17 18 18 19 19 19 19 20 20 19 19 18 18 17 16 15 14 14 14 15 15 14 15 14 13 12 12 12 11 11 11 10 10 10 10 10 10 9
8 7 7 7 8 9 11 11 13 15 16 17 18 19 19 19 19 19 19 19 19 19 18 18 17 16 15 15 14 14 14 14 14 14 14 14 14 14 14 12 11 11 10 10 10 10 10 10 9
7 7 8 8 8 8 10 12 14 15 15 16 17 18 18 19 19 19 19 19 19 18 18 18 17 16 16 15 15 14 14 14 14 14 13 13 14 13 13 12 12 11 10 10 10 10 10 9 9
7 7 7 6 7 8 10 11 13 14 14 15 16 16 17 18 18 18 18 18 18 18 18 17 17 17 16 15 15 14 14 14 14 13 13 13 13 13 12 12 11 11 10 10 10 10 9 9 9
7 7 6 6 7 8 9 12 15 15 15 15 15 16 17 18 18 18 18 18 18 18 17 17 16 16 16 15 15 14 14 14 13 13 13 12 12 12 12 12 11 11 10 10 10 10 9 9 9
6 6 6 6 6 8 9 11 15 14 15 15 15 16 17 17 17 17 17 17 17 17 17 16 16 16 15 15 15 14 14 13 13 13 12 12 12 12 12 11 11 10 10 10 10 10 9 9 9
Wind_Speed
9 12 9 4 4 7 13 12 13 10 6 3 3 4 5 4 1 5 8 11 18 21 23 25 25 24 22 21 20 19 18 18 18 17 17 17 17 17 16 16 16 17 17 17 17 18 17 17 17
10 10 6 4 7 11 12 16 17 12 4 1 2 4 5 1 6 10 9 14 20 21 22 23 25 24 22 21 21 20 19 18 18 17 17 17 17 17 17 17 16 17 17 17 17 17 17 16 16
11 11 5 5 8 14 11 9 8 5 1 3 1 4 5 1 7 8 11 18 19 19 21 24 26 24 23 22 21 20 19 18 18 17 17 17 17 17 17 16 16 17 16 16 16 16 16 15 15
6 5 5 10 18 17 17 13 2 1 3 4 5 4 2 1 4 11 16 18 19 19 20 24 25 25 23 22 21 20 19 18 18 18 17 17 17 17 16 16 16 16 16 15 15 15 15 14 14
6 5 10 15 21 19 17 15 6 5 5 7 8 6 2 4 13 16 16 17 18 18 19 24 25 25 24 23 22 20 20 19 18 18 17 17 17 17 16 16 16 15 15 15 15 15 14 13 13
6 6 11 18 20 20 19 15 11 8 7 8 9 8 4 7 12 14 14 15 16 18 19 22 25 25 23 22 22 21 20 19 18 17 17 17 17 16 16 15 15 15 14 14 14 14 13 12 12
10 9 17 19 18 17 16 13 13 11 10 10 8 8 6 8 12 13 13 14 16 18 18 17 20 22 22 22 22 21 20 19 18 17 17 17 17 16 16 15 14 14 14 13 13 13 12 12 10
10 8 17 20 20 19 14 12 9 9 9 8 8 7 7 12 14 13 13 13 15 17 17 16 17 19 19 20 21 20 19 19 18 18 18 17 16 16 15 15 14 14 13 13 12 12 11 10 8
11 14 21 21 17 14 13 13 10 7 7 7 5 3 7 19 16 14 12 12 14 16 16 16 16 16 18 18 20 20 19 19 19 18 19 17 15 15 14 15 14 13 13 12 11 11 10 9 6
11 19 28 20 17 14 13 10 8 7 9 8 4 5 15 16 16 16 16 16 16 17 17 16 16 16 16 17 18 17 16 17 17 16 17 15 14 15 15 17 14 13 12 11 10 10 9 8 7
14 23 22 22 21 17 15 12 9 9 9 9 8 12 15 14 14 15 16 16 16 16 16 16 16 15 14 11 14 12 14 15 15 17 17 14 14 14 15 13 12 12 11 10 10 9 8 7 6
21 24 23 22 19 17 16 14 13 12 11 8 7 12 17 16 16 16 16 16 15 16 16 16 16 15 14 12 11 10 9 10 10 15 17 13 9 9 11 9 11 11 10 9 9 7 6 6 6
26 26 24 21 19 18 17 17 15 15 12 10 7 9 16 17 16 15 14 14 15 16 16 16 16 16 14 12 10 10 9 9 12 14 15 14 9 6 8 8 10 10 10 9 6 5 5 5 5
19 22 23 22 21 19 18 18 17 16 12 12 10 10 13 15 16 14 14 15 17 17 17 16 17 17 15 12 11 10 10 11 13 13 14 15 13 9 7 6 7 8 10 9 7 5 5 4 4
20 22 22 22 22 20 16 22 23 17 14 15 14 12 13 14 15 15 16 16 18 18 18 16 17 17 16 14 12 10 10 11 9 12 15 16 15 13 9 5 5 7 11 10 6 5 5 3 3
14 17 22 22 22 19 18 24 19 16 18 18 16 14 13 14 15 15 15 15 16 17 19 18 16 17 17 14 12 9 9 10 9 13 14 15 15 15 10 6 6 10 10 7 3 4 4 3 3
12 17 21 21 22 20 21 21 15 16 19 19 17 16 15 15 16 15 15 16 17 19 19 20 17 17 16 14 11 9 8 9 9 12 12 14 15 15 10 6 7 11 7 4 4 4 4 4 3
15 16 20 21 16 20 23 24 16 14 17 19 18 17 16 16 16 15 16 17 17 18 19 20 18 17 16 13 10 9 9 9 8 9 11 15 15 16 12 7 8 10 6 5 5 5 4 4 4
20 20 21 20 17 18 22 24 21 18 16 16 16 17 17 16 15 15 16 16 17 17 19 21 19 18 16 14 13 13 12 11 9 8 12 15 15 15 11 7 7 7 7 7 7 5 5 4 4
23 23 23 18 17 17 18 22 19 18 18 15 14 15 16 16 16 16 16 16 18 19 20 21 22 20 19 16 14 12 11 9 9 8 10 14 15 15 12 9 8 8 7 8 8 7 5 4 4
24 23 22 19 16 15 14 18 20 16 18 17 16 15 14 16 17 17 17 17 17 18 21 21 22 21 20 17 12 11 9 8 9 11 11 11 14 15 13 11 9 9 8 8 8 8 8 5 4
21 20 20 19 16 10 12 11 15 17 18 20 19 17 16 15 15 15 16 17 18 18 19 20 21 21 21 19 17 18 16 13 13 13 11 11 13 13 14 13 11 10 8 9 9 8 6 7 5
16 15 17 16 14 13 13 10 10 15 19 21 20 19 18 16 15 15 16 17 18 18 19 19 19 21 20 20 20 19 14 12 10 10 13 14 13 12 14 14 11 11 9 10 10 9 8 6 6
13 11 12 11 9 14 17 14 9 13 19 20 21 20 18 17 15 14 14 15 16 17 18 18 19 19 20 21 21 20 18 16 15 14 15 14 11 11 14 13 12 11 10 10 10 10 10 8 7
11 8 6 8 9 11 12 13 11 11 15 16 16 18 19 17 16 14 13 14 16 18 19 19 20 20 20 22 22 21 20 19 18 16 16 14 12 11 16 14 13 12 10 10 9 10 10 10 9
12 12 9 6 7 7 11 13 11 14 12 11 12 12 14 16 16 16 15 14 14 17 19 20 21 19 21 22 22 20 19 16 13 15 14 15 13 13 15 15 13 13 12 11 10 9 9 9 9
7 11 9 6 7 6 6 8 12 11 12 13 11 11 14 15 15 15 14 14 15 16 18 21 21 18 19 21 20 19 19 17 15 14 13 13 11 12 15 16 15 13 13 12 11 9 9 9 9
7 5 5 7 6 7 8 11 9 10 13 13 12 12 10 11 12 12 12 13 14 15 15 16 18 19 17 19 19 17 18 17 15 14 14 14 14 13 15 15 15 14 13 12 11 9 9 9 8
6 8 6 5 6 5 5 6 7 8 10 11 12 12 11 10 10 11 10 11 12 13 15 15 15 14 16 18 17 16 16 15 14 13 14 14 13 14 15 15 15 14 14 13 12 11 10 11 9
4 4 5 5 6 6 6 6 3 3 3 6 8 8 9 9 9 9 9 9 11 13 14 15 15 14 14 15 15 15 14 14 14 13 13 13 14 14 14 15 15 14 14 13 13 13 12 11 11
Wind_Direction
261 248 237 233 237 235 242 243 254 250 247 271 304 300 293 274 282 133 163 156 131 141 148 154 152 150 147 144 140 137 134 131 127 123 118 116 113 110 108 106 102 99 96 93 91 89 85 83 82
267 249 237 232 232 238 243 236 245 249 226 76 356 310 292 335 82 115 147 136 136 141 148 153 152 150 148 146 142 139 137 134 130 127 123 120 117 114 110 107 104 101 98 95 93 92 89 86 84
265 255 232 228 229 235 249 248 232 238 129 117 164 258 259 184 124 133 137 135 137 141 148 151 151 150 149 147 144 141 138 136 133 129 127 123 120 116 112 110 107 104 101 99 97 96 92 89 86
249 233 238 237 240 238 249 265 281 258 164 176 198 218 200 355 95 122 133 138 139 142 145 150 153 151 149 147 146 143 141 138 135 131 128 126 122 118 114 112 110 108 106 104 101 98 95 91 88
244 237 229 238 244 250 258 265 247 224 204 196 206 219 171 87 103 124 138 142 142 143 143 151 154 153 151 149 148 146 144 142 138 135 132 128 125 121 118 116 114 112 111 108 105 101 98 93 89
223 226 231 237 243 246 249 255 260 243 229 220 210 213 189 133 125 138 144 145 143 140 143 152 155 153 152 151 151 149 146 143 142 139 136 131 129 126 124 122 119 116 113 111 108 105 101 95 91
228 234 241 246 250 248 245 237 235 232 228 228 220 210 168 158 140 143 146 146 141 140 144 152 155 153 153 153 152 150 149 147 146 142 138 135 134 133 129 126 123 121 119 115 111 109 104 99 94
230 247 248 245 249 254 260 258 242 235 236 235 228 217 183 152 139 144 147 146 142 143 149 155 156 154 153 153 153 151 150 150 148 142 137 136 137 136 133 130 128 126 124 120 115 112 108 105 103
236 237 240 238 243 252 256 257 252 240 242 253 255 277 129 133 141 147 150 147 147 150 154 159 159 157 155 155 155 151 150 150 145 139 139 140 140 138 137 133 133 132 128 126 123 122 121 121 125
220 233 236 240 251 259 261 256 253 240 226 235 230 111 123 139 152 159 163 162 161 160 161 163 162 160 158 157 154 154 153 150 149 146 149 156 151 146 139 136 138 138 136 133 134 138 144 149 159
224 234 242 245 252 263 268 268 263 249 238 222 200 156 147 156 165 172 173 170 166 164 163 164 163 161 158 153 157 159 156 159 162 158 164 165 147 137 133 141 142 143 146 148 151 163 183 172 151
239 241 242 247 254 260 264 265 259 251 249 242 219 165 159 169 179 183 180 173 167 167 168 165 162 162 159 156 161 159 156 165 165 164 169 162 146 143 148 153 160 162 167 161 171 188 180 151 146
239 246 247 248 250 253 259 259 256 249 254 265 250 175 170 179 188 191 184 175 168 171 171 169 164 163 161 159 163 163 161 166 165 166 174 160 147 151 155 163 162 168 165 162 180 177 153 143 130
246 249 250 251 252 254 253 254 252 246 243 249 243 199 187 189 193 191 186 178 175 174 174 171 168 165 163 163 165 166 165 166 165 166 173 162 158 160 161 159 159 163 157 165 175 168 142 129 120
253 257 254 247 245 243 251 251 242 241 239 238 236 220 204 199 199 198 191 183 178 175 174 174 172 167 167 167 168 167 165 165 162 165 172 167 165 165 167 155 155 157 161 165 169 153 131 121 120
249 249 248 242 239 236 232 245 237 228 233 234 230 225 215 208 204 201 195 185 178 174 174 175 175 172 170 170 169 163 164 163 162 165 172 171 170 169 166 153 156 161 161 159 149 138 130 130 133
231 235 239 243 232 231 229 244 239 227 227 230 227 225 217 211 207 203 196 187 180 176 175 175 175 175 172 168 167 162 162 163 165 167 171 174 173 170 164 156 159 160 155 153 155 146 142 139 130
224 231 238 239 232 229 232 240 240 235 228 228 225 223 221 213 208 200 196 189 182 176 175 175 174 175 170 165 166 164 166 169 168 172 173 175 176 173 167 159 164 161 154 160 158 153 145 143 144
245 247 247 248 240 235 237 240 238 235 238 233 224 221 219 216 208 199 194 188 180 176 174 175 175 176 173 174 176 177 179 178 176 176 178 178 177 176 170 165 167 162 162 167 164 153 151 150 136
247 250 254 259 253 243 245 247 242 235 231 234 233 225 219 213 209 201 194 188 182 179 176 176 178 179 179 181 182 179 173 175 176 175 182 184 182 179 177 169 171 166 164 170 170 154 154 162 158
245 246 249 251 256 253 256 253 243 236 234 229 232 232 225 216 209 201 195 190 183 181 179 180 180 181 183 178 173 168 166 169 179 186 189 189 186 183 179 176 171 173 171 176 175 166 161 167 188
245 244 250 253 254 250 234 250 236 228 229 227 225 225 225 223 214 203 195 192 186 183 180 180 180 181 183 178 178 177 181 185 189 186 185 185 188 186 182 181 179 178 177 178 179 173 167 161 178
247 247 246 249 252 256 240 246 243 221 226 223 220 220 219 219 217 209 198 191 188 182 179 180 180 182 182 182 184 184 187 189 179 176 181 187 191 189 186 185 184 183 183 182 181 175 173 171 171
252 254 254 247 244 247 235 231 248 221 224 222 216 216 214 212 215 215 201 188 185 181 178 179 180 183 183 184 186 188 188 184 179 181 186 188 190 191 190 188 189 187 185 184 183 180 178 180 179
228 217 218 218 220 236 222 226 240 229 227 223 218 213 211 207 208 211 203 189 184 180 179 180 182 185 185 186 189 192 192 189 187 185 186 185 187 192 194 191 191 191 187 183 180 180 182 182 183
220 213 217 219 219 233 217 225 237 232 238 231 223 218 209 205 204 206 202 190 182 180 180 181 184 187 187 188 192 193 192 192 192 187 185 188 191 191 189 191 192 191 187 184 181 181 183 185 187
220 221 232 262 280 263 232 234 242 223 229 235 232 222 212 206 202 200 196 187 180 180 181 183 185 188 189 189 190 192 192 192 192 187 184 186 186 184 185 189 191 191 188 186 181 185 185 183 188
223 230 213 212 231 239 237 235 234 204 212 221 223 223 214 203 199 195 194 190 183 180 180 180 185 189 188 188 190 193 193 192 189 185 184 183 182 180 183 186 190 190 188 185 183 181 179 181 187
221 216 226 221 235 232 240 238 227 216 202 211 219 219 213 207 198 193 192 187 178 173 176 178 183 186 187 187 187 187 188 187 185 185 183 180 179 178 182 184 187 188 187 183 183 184 180 184 187
236 227 218 233 243 239 249 261 278 262 218 210 219 216 210 206 195 187 181 177 173 173 176 178 181 185 186 184 182 183 181 180 182 183 180 177 177 178 179 180 183 185 185 184 185 185 184 187 189
Height
1495 1496 1497 1500 1501 1497 1489 1475 1463 1458 1454 1454 1456 1457 1457 1460 1463 1473 1473 1474 1474 1476 1481 1486 1490 1494 1498 1501 1505 1508 1511 1514 1516 1518 1520 1522 1524 1525 1527 1529 1530 1532 1532 1533 1534 1535 1535 1536 1536
1493 1496 1498 1497 1496 1495 1481 1467 1461 1454 1452 1455 1457 1459 1459 1462 1463 1466 1469 1473 1474 1476 1480 1485 1489 1493 1497 1501 1504 1508 1511 1514 1516 1518 1521 1522 1524 1526 1528 1529 1531 1532 1533 1534 1534 1535 1536 1536 1537
1491 1494 1496 1491 1487 1483 1471 1455 1451 1450 1452 1455 1459 1461 1461 1463 1464 1465 1468 1471 1474 1476 1480 1484 1489 1493 1497 1501 1504 1507 1510 1513 1516 1518 1521 1523 1525 1526 1528 1529 1531 1532 1533 1534 1535 1536 1537 1537 1538
1491 1493 1491 1485 1477 1467 1461 1453 1450 1451 1453 1456 1459 1461 1462 1464 1464 1464 1467 1470 1474 1476 1480 1484 1488 1492 1496 1500 1504 1507 1510 1513 1516 1518 1521 1523 1525 1526 1528 1530 1531 1532 1534 1535 1536 1537 1537 1538 1539
1489 1488 1485 1479 1470 1461 1454 1450 1449 1451 1452 1455 1458 1459 1461 1463 1463 1464 1467 1470 1473 1476 1480 1484 1488 1492 1496 1500 1503 1507 1510 1513 1516 1518 1521 1523 1525 1526 1528 1530 1531 1533 1534 1535 1537 1537 1538 1539 1540
1486 1481 1479 1473 1464 1456 1452 1450 1448 1449 1451 1453 1455 1457 1460 1461 1462 1464 1467 1471 1474 1476 1479 1484 1488 1492 1496 1500 1503 1506 1509 1512 1515 1518 1521 1523 1525 1526 1528 1530 1532 1533 1535 1536 1537 1538 1539 1540 1541
1479 1476 1470 1463 1458 1452 1446 1445 1446 1446 1448 1450 1452 1454 1457 1460 1461 1463 1467 1471 1474 1476 1478 1483 1487 1492 1496 1499 1503 1506 1509 1512 1515 1518 1520 1522 1524 1526 1528 1530 1532 1533 1535 1536 1538 1539 1540 1541 1542
1473 1471 1463 1458 1455 1450 1444 1442 1442 1444 1445 1448 1449 1450 1453 1456 1458 1462 1467 1471 1474 1476 1478 1482 1486 1490 1494 1498 1502 1505 1508 1511 1514 1517 1519 1522 1524 1526 1528 1530 1532 1534 1535 1537 1538 1539 1540 1542 1543
1468 1468 1457 1452 1450 1446 1442 1440 1440 1441 1443 1445 1446 1447 1449 1451 1456 1460 1466 1470 1473 1475 1478 1481 1485 1489 1493 1497 1501 1504 1508 1511 1514 1516 1519 1522 1524 1526 1528 1530 1532 1534 1536 1537 1539 1540 1541 1542 1544
1460 1455 1445 1445 1444 1442 1439 1438 1438 1439 1441 1443 1445 1447 1447 1450 1454 1457 1461 1465 1469 1472 1476 1479 1483 1487 1491 1495 1499 1503 1506 1509 1512 1515 1518 1521 1523 1526 1528 1530 1532 1534 1536 1537 1539 1540 1542 1543 1544
1449 1444 1441 1442 1442 1440 1438 1437 1437 1438 1439 1440 1442 1444 1446 1449 1453 1456 1458 1461 1465 1469 1474 1478 1482 1486 1490 1493 1497 1501 1504 1508 1511 1514 1517 1520 1523 1526 1528 1530 1532 1534 1536 1537 1539 1541 1542 1543 1545
1443 1438 1439 1438 1439 1438 1436 1435 1435 1435 1436 1438 1439 1440 1442 1446 1450 1453 1456 1460 1464 1468 1472 1476 1480 1484 1488 1491 1495 1499 1502 1506 1510 1513 1516 1520 1522 1524 1527 1529 1531 1533 1535 1537 1539 1541 1543 1544 1545
1437 1434 1434 1434 1435 1434 1434 1432 1432 1431 1434 1435 1436 1437 1439 1442 1446 1450 1454 1458 1461 1465 1469 1474 1478 1481 1485 1489 1493 1497 1501 1504 1508 1512 1515 1518 1521 1523 1526 1528 1531 1533 1535 1537 1539 1541 1543 1544 1545
1432 1431 1430 1430 1430 1430 1430 1428 1429 1427 1431 1432 1433 1434 1436 1439 1443 1447 1451 1455 1458 1461 1466 1471 1475 1479 1483 1487 1491 1495 1499 1503 1506 1510 1513 1517 1519 1522 1525 1527 1530 1532 1534 1536 1538 1540 1542 1544 1545
1431 1429 1425 1423 1424 1425 1428 1425 1421 1423 1427 1428 1429 1430 1433 1435 1439 1442 1446 1449 1452 1457 1462 1467 1472 1476 1480 1485 1489 1493 1497 1501 1504 1508 1511 1515 1518 1520 1523 1526 1528 1531 1533 1536 1538 1540 1541 1543 1544
1427 1427 1423 1416 1418 1419 1426 1418 1413 1418 1421 1421 1423 1425 1428 1431 1434 1437 1441 1445 1449 1453 1458 1463 1468 1473 1477 1482 1487 1491 1495 1498 1502 1505 1509 1512 1516 1519 1521 1524 1527 1529 1532 1534 1536 1538 1540 1542 1543
1423 1421 1416 1412 1411 1412 1414 1409 1408 1411 1413 1414 1416 1419 1421 1424 1428 1432 1436 1440 1444 1448 1453 1458 1463 1468 1473 1478 1484 1488 1492 1496 1499 1502 1506 1510 1513 1516 1519 1522 1525 1527 1530 1532 1535 1537 1538 1540 1542
1414 1412 1409 1407 1404 1406 1406 1402 1403 1404 1405 1406 1408 1411 1414 1416 1420 1425 1430 1434 1439 1444 1448 1453 1458 1464 1470 1475 1480 1485 1489 1492 1496 1499 1502 1506 1510 1513 1516 1519 1522 1525 1527 1530 1532 1535 1537 1539 1540
1408 1407 1405 1401 1398 1400 1398 1396 1396 1398 1398 1398 1400 1402 1406 1409 1414 1418 1423 1428 1433 1438 1443 1448 1453 1458 1464 1469 1473 1478 1482 1487 1491 1495 1499 1503 1506 1510 1513 1516 1519 1522 1524 1527 1530 1532 1534 1536 1538
1405 1406 1403 1400 1396 1395 1394 1391 1389 1389 1390 1392 1393 1395 1398 1402 1407 1410 1415 1420 1425 1431 1436 1441 1446 1451 1457 1461 1466 1472 1477 1482 1487 1491 1495 1499 1502 1506 1509 1512 1515 1518 1521 1524 1527 1529 1531 1534 1536
1401 1402 1400 1399 1395 1392 1394 1390 1385 1381 1382 1385 1387 1388 1391 1394 1398 1402 1407 1412 1417 1423 1428 1434 1439 1444 1450 1456 1463 1469 1475 1479 1483 1486 1489 1493 1498 1501 1505 1508 1512 1515 1518 1520 1523 1526 1528 1530 1533
1396 1394 1396 1396 1398 1396 1394 1391 1379 1375 1375 1375 1377 1380 1383 1386 1390 1395 1399 1404 1409 1415 1421 1427 1433 1438 1444 1450 1455 1460 1464 1468 1472 1477 1483 1488 1492 1496 1500 1504 1507 1510 1514 1517 1519 1522 1525 1527 1529
1389 1390 1392 1393 1396 1396 1391 1392 1376 1368 1368 1366 1368 1371 1374 1379 1383 1387 1391 1396 1402 1408 1414 1420 1426 1432 1438 1443 1448 1453 1458 1462 1468 1473 1478 1482 1487 1491 1495 1498 1502 1506 1509 1512 1516 1518 1521 1523 1526
1386 1389 1389 1390 1395 1395 1385 1387 1374 1361 1357 1355 1357 1361 1365 1371 1376 1380 1385 1390 1395 1401 1407 1413 1419 1425 1431 1436 1441 1446 1451 1456 1462 1466 1471 1476 1480 1484 1489 1493 1497 1500 1504 1507 1511 1514 1517 1520 1522
1385 1391 1395 1393 1390 1383 1372 1374 1364 1348 1345 1345 1347 1351 1356 1362 1368 1373 1377 1382 1387 1392 1398 1405 1411 1418 1424 1429 1434 1439 1445 1450 1454 1459 1464 1468 1473 1477 1481 1486 1490 1494 1498 1503 1507 1510 1512 1515 1518
1380 1384 1388 1385 1380 1371 1362 1362 1350 1341 1339 1339 1341 1344 1348 1353 1358 1364 1369 1374 1379 1384 1390 1397 1403 1410 1416 1422 1427 1433 1439 1444 1449 1454 1458 1462 1466 1470 1475 1480 1484 1489 1493 1498 1502 1505 1508 1511 1514
1377 1378 1377 1380 1375 1372 1359 1348 1339 1334 1335 1336 1336 1337 1340 1345 1350 1355 1361 1366 1371 1377 1382 1388 1395 1402 1409 1414 1421 1426 1432 1437 1443 1448 1453 1457 1461 1465 1470 1474 1479 1483 1488 1492 1496 1500 1503 1506 1509
1374 1374 1377 1381 1379 1372 1357 1347 1338 1331 1331 1330 1332 1333 1334 1338 1343 1348 1353 1359 1364 1369 1375 1381 1388 1394 1401 1408 1414 1419 1425 1431 1437 1442 1447 1451 1455 1460 1464 1469 1473 1478 1482 1487 1491 1494 1498 1501 1504
1372 1375 1375 1375 1371 1366 1357 1342 1321 1321 1322 1324 1325 1327 1330 1334 1338 1342 1347 1352 1357 1363 1369 1374 1381 1388 1395 1401 1407 1413 1419 1425 1431 1436 1441 1445 1450 1455 1459 1463 1468 1472 1477 1481 1485 1489 1493 1496 1499
1371 1372 1375 1377 1370 1360 1355 1341 1317 1317 1316 1317 1319 1321 1325 1329 1333 1338 1342 1347 1351 1357 1362 1367 1374 1381 1387 1394 1400 1406 1413 1419 1425 1430 1435 1440 1445 1450 1454 1458 1463 1467 1472 1476 1480 1484 1487 1490 1493